"FRM_AIS_EDR_2783.DAT           ",2006-03-12T22:40:41.27 ,"1/0090283237.44743",    0,    0,   22909,"AIS","B1","B2","B0","B0","PISd",0,0,0,0,"B1", 0,15,   0, 0,    0,"AIS","N/A    ","OK ","OK ",    001155.981,    0012.516,    0098.478,    0018.919,    0101.000
"FRM_AIS_EDR_2783.DAT           ",2006-03-12T22:40:48.82 ,"1/0090283245.14806",    0,    1,   22909,"AIS","B1","B2","B0","B0","PISd",0,0,0,0,"B1", 0,15,   0, 0,    0,"AIS","N/A    ","OK ","OK ",    001145.552,    0012.187,    0098.467,    0018.921,    0101.095
"FRM_AIS_EDR_2783.DAT           ",2006-03-12T22:40:56.36 ,"1/0090283252.50406",    0,    2,   22909,"AIS","B1","B2","B0","B0","PISd",0,0,0,0,"B1", 0,15,   0, 0,    0,"AIS","N/A    ","OK ","OK ",    001135.155,    0011.857,    0098.457,    0018.922,    0101.189
"FRM_AIS_EDR_2783.DAT           ",2006-03-12T22:41:03.90 ,"1/0090283260.20469",    0,    3,   22909,"AIS","B1","B2","B0","B0","PISd",0,0,0,0,"B1", 0,15,   0, 0,    0,"AIS","N/A    ","OK ","OK ",    001124.792,    0011.526,    0098.447,    0018.923,    0101.283
"FRM_AIS_EDR_2783.DAT           ",2006-03-12T22:41:11.45 ,"1/0090283267.56068",    0,    4,   22909,"AIS","B1","B2","B0","B0","PISd",0,0,0,0,"B1", 0,15,   0, 0,    0,"AIS","N/A    ","OK ","OK ",    001114.463,    0011.193,    0098.437,    0018.925,    0101.377
"FRM_AIS_EDR_2783.DAT           ",2006-03-12T22:41:18.99 ,"1/0090283275.26132",    0,    5,   22909,"AIS","B1","B2","B0","B0","PISd",0,0,0,0,"B1", 0,15,   0, 0,    0,"AIS","N/A    ","OK ","OK ",    001104.168,    0010.858,    0098.427,    0018.926,    0101.472
"FRM_AIS_EDR_2783.DAT           ",2006-03-12T22:41:26.53 ,"1/0090283282.61731",    0,    6,   22909,"AIS","B1","B2","B0","B0","PISd",0,0,0,0,"B1", 0,15,   0, 0,    0,"AIS","N/A    ","OK ","OK ",    001093.909,    0010.522,    0098.416,    0018.927,    0101.566
"FRM_AIS_EDR_2783.DAT           ",2006-03-12T22:41:34.08 ,"1/0090283290.31795",    0,    7,   22909,"AIS","B1","B2","B0","B0","PISd",0,0,0,0,"B1", 0,15,   0, 0,    0,"AIS","N/A    ","OK ","OK ",    001083.685,    0010.185,    0098.406,    0018.929,    0101.661
"FRM_AIS_EDR_2783.DAT           ",2006-03-12T22:41:41.62 ,"1/0090283298.01858",    0,    8,   22909,"AIS","B1","B2","B0","B0","PISd",0,0,0,0,"B1", 0,15,   0, 0,    0,"AIS","N/A    ","OK ","OK ",    001073.497,    0009.846,    0098.396,    0018.930,    0101.755
"FRM_AIS_EDR_2783.DAT           ",2006-03-12T22:41:49.16 ,"1/0090283305.37457",    0,    9,   22909,"AIS","B1","B2","B0","B0","PISd",0,0,0,0,"B1", 0,15,   0, 0,    0,"AIS","N/A    ","OK ","OK ",    001063.346,    0009.505,    0098.387,    0018.932,    0101.850
"FRM_AIS_EDR_2783.DAT           ",2006-03-12T22:41:56.71 ,"1/0090283313.07521",    0,   10,   22909,"AIS","B1","B2","B0","B0","PISd",0,0,0,0,"B1", 0,15,   0, 0,    0,"AIS","N/A    ","OK ","OK ",    001053.233,    0009.163,    0098.377,    0018.933,    0101.944
"FRM_AIS_EDR_2783.DAT           ",2006-03-12T22:42:04.25 ,"1/0090283320.43120",    0,   11,   22909,"AIS","B1","B2","B0","B0","PISd",0,0,0,0,"B1", 0,15,   0, 0,    0,"AIS","N/A    ","OK ","OK ",    001043.157,    0008.820,    0098.367,    0018.934,    0102.039
"FRM_AIS_EDR_2783.DAT           ",2006-03-12T22:42:11.79 ,"1/0090283328.13184",    0,   12,   22909,"AIS","B1","B2","B0","B0","PISd",0,0,0,0,"B1", 0,15,   0, 0,    0,"AIS","N/A    ","OK ","OK ",    001033.119,    0008.474,    0098.357,    0018.936,    0102.134
"FRM_AIS_EDR_2783.DAT           ",2006-03-12T22:42:19.34 ,"1/0090283335.48783",    0,   13,   22909,"AIS","B1","B2","B0","B0","PISd",0,0,0,0,"B1", 0,15,   0, 0,    0,"AIS","N/A    ","OK ","OK ",    001023.121,    0008.127,    0098.347,    0018.937,    0102.228
"FRM_AIS_EDR_2783.DAT           ",2006-03-12T22:42:26.88 ,"1/0090283343.18847",    0,   14,   22909,"AIS","B1","B2","B0","B0","PISd",0,0,0,0,"B1", 0,15,   0, 0,    0,"AIS","N/A    ","OK ","OK ",    001013.162,    0007.779,    0098.338,    0018.939,    0102.323
"FRM_AIS_EDR_2783.DAT           ",2006-03-12T22:42:34.42 ,"1/0090283350.54446",    0,   15,   22909,"AIS","B1","B2","B0","B0","PISd",0,0,0,0,"B1", 0,15,   0, 0,    0,"AIS","N/A    ","OK ","OK ",    001003.242,    0007.429,    0098.328,    0018.940,    0102.417
"FRM_AIS_EDR_2783.DAT           ",2006-03-12T22:42:41.97 ,"1/0090283358.24509",    0,   16,   22909,"AIS","B1","B2","B0","B0","PISd",0,0,0,0,"B1", 0,15,   0, 0,    0,"AIS","N/A    ","OK ","OK ",    000993.364,    0007.078,    0098.319,    0018.941,    0102.512
"FRM_AIS_EDR_2783.DAT           ",2006-03-12T22:42:49.51 ,"1/0090283365.60109",    0,   17,   22909,"AIS","B1","B2","B0","B0","PISd",0,0,0,0,"B1", 0,15,   0, 0,    0,"AIS","N/A    ","OK ","OK ",    000983.526,    0006.725,    0098.309,    0018.943,    0102.607
"FRM_AIS_EDR_2783.DAT           ",2006-03-12T22:42:57.05 ,"1/0090283373.30172",    0,   18,   22909,"AIS","B1","B2","B0","B0","PISd",0,0,0,0,"B1", 0,15,   0, 0,    0,"AIS","N/A    ","OK ","OK ",    000973.731,    0006.370,    0098.300,    0018.944,    0102.701
"FRM_AIS_EDR_2783.DAT           ",2006-03-12T22:43:04.59 ,"1/0090283381.00236",    0,   19,   22909,"AIS","B1","B2","B0","B0","PISd",0,0,0,0,"B1", 0,15,   0, 0,    0,"AIS","N/A    ","OK ","OK ",    000963.977,    0006.014,    0098.290,    0018.946,    0102.796
"FRM_AIS_EDR_2783.DAT           ",2006-03-12T22:43:12.14 ,"1/0090283388.35835",    0,   20,   22909,"AIS","B1","B2","B0","B0","PISd",0,0,0,0,"B1", 0,15,   0, 0,    0,"AIS","N/A    ","OK ","OK ",    000954.267,    0005.656,    0098.281,    0018.947,    0102.890
"FRM_AIS_EDR_2783.DAT           ",2006-03-12T22:43:19.68 ,"1/0090283396.05898",    0,   21,   22909,"AIS","B1","B2","B0","B0","PISd",0,0,0,0,"B1", 0,15,   0, 0,    0,"AIS","N/A    ","OK ","OK ",    000944.600,    0005.296,    0098.272,    0018.948,    0102.984
"FRM_AIS_EDR_2783.DAT           ",2006-03-12T22:43:27.22 ,"1/0090283403.41498",    0,   22,   22909,"AIS","B1","B2","B0","B0","PISd",0,0,0,0,"B1", 0,15,   0, 0,    0,"AIS","N/A    ","OK ","OK ",    000934.977,    0004.935,    0098.263,    0018.950,    0103.079
"FRM_SS2_TRK_CMP_EDR_2783.DAT   ",2006-03-12T22:43:41.08 ,"1/0090283417.31850",    1,    0,    1918,"SS2","B4","B1","B4","B1","PISd",1,2,1,1,"B2", 0, 7,   0, 0,    0,"TRK","NO  REC","OK ","OK ",    000917.422,    0004.268,    0098.246,    0018.953,    0103.251
"FRM_SS2_TRK_CMP_EDR_2783.DAT   ",2006-03-12T22:43:43.76 ,"1/0090283420.11354",    1,    1,    1918,"SS2","B4","B1","B4","B1","PISd",1,2,1,1,"B2", 0, 7,   0, 0,    0,"TRK","NO  REC","OK ","OK ",    000914.034,    0004.138,    0098.243,    0018.953,    0103.285
"FRM_SS2_TRK_CMP_EDR_2783.DAT   ",2006-03-12T22:43:46.44 ,"1/0090283422.55880",    1,    2,    1918,"SS2","B4","B1","B4","B1","PISd",1,2,1,1,"B2", 0, 7,   0, 0,    0,"TRK","NO  REC","OK ","OK ",    000910.662,    0004.008,    0098.240,    0018.954,    0103.318
"FRM_SS2_TRK_CMP_EDR_2783.DAT   ",2006-03-12T22:43:49.12 ,"1/0090283425.34355",    1,    3,    1918,"SS2","B4","B1","B4","B1","PISd",1,2,1,1,"B2", 0, 7,   0, 0,    0,"TRK","NO  REC","OK ","OK ",    000907.306,    0003.878,    0098.237,    0018.954,    0103.352
"FRM_SS2_TRK_CMP_EDR_2783.DAT   ",2006-03-12T22:43:51.78 ,"1/0090283428.12315",    1,    4,    1918,"SS2","B4","B1","B4","B1","PISd",1,2,1,1,"B2", 0, 7,   0, 0,    0,"TRK","NO  REC","OK ","OK ",    000903.965,    0003.749,    0098.234,    0018.954,    0103.385
"FRM_SS2_TRK_CMP_EDR_2783.DAT   ",2006-03-12T22:43:56.15 ,"1/0090283432.36482",    2,    0,    1909,"SS2","B3","B1","B3","B1","PISd",1,2,1,1,"B2", 0,11,   0, 0,    0,"TRK","NO  REC","OK ","OK ",    000898.499,    0003.536,    0098.228,    0018.955,    0103.439
"FRM_SS2_TRK_CMP_EDR_2783.DAT   ",2006-03-12T22:43:58.80 ,"1/0090283435.13412",    2,    1,    1909,"SS2","B3","B1","B3","B1","PISd",1,2,1,1,"B2", 0,11,   0, 0,    0,"TRK","NO  REC","OK ","OK ",    000895.193,    0003.407,    0098.225,    0018.956,    0103.472
"FRM_SS2_TRK_CMP_EDR_2783.DAT   ",2006-03-12T22:44:01.44 ,"1/0090283437.55878",    2,    2,    1909,"SS2","B3","B1","B3","B1","PISd",1,2,1,1,"B2", 0,11,   0, 0,    0,"TRK","NO  REC","OK ","OK ",    000891.894,    0003.277,    0098.222,    0018.956,    0103.505
"FRM_SS2_TRK_CMP_EDR_2783.DAT   ",2006-03-12T22:44:04.08 ,"1/0090283440.32293",    2,    3,    1909,"SS2","B3","B1","B3","B1","PISd",1,2,1,1,"B2", 0,11,   0, 0,    0,"TRK","NO  REC","OK ","OK ",    000888.609,    0003.148,    0098.219,    0018.957,    0103.538
"FRM_SS2_TRK_CMP_EDR_2783.DAT   ",2006-03-12T22:44:06.72 ,"1/0090283443.08193",    2,    4,    1909,"SS2","B3","B1","B3","B1","PISd",1,2,1,1,"B2", 0,11,   0, 0,    0,"TRK","NO  REC","OK ","OK ",    000885.341,    0003.019,    0098.216,    0018.957,    0103.570
"FRM_SS3_TRK_CMP_EDR_2783.DAT   ",2006-03-12T22:44:11.15 ,"1/0090283447.36481",    3,    0,   15284,"SS3","B3","B2","B3","B2","PISd",0,2,1,1,"B2", 0,15,   1, 1,    0,"TRK","NO  REC","OK ","OK ",    000879.851,    0002.801,    0098.211,    0018.958,    0103.625
"FRM_SS3_TRK_CMP_EDR_2783.DAT   ",2006-03-12T22:44:13.24 ,"1/0090283449.42385",    3,    1,   15284,"SS3","B3","B2","B3","B2","PISd",0,2,1,1,"B2", 0,15,   1, 1,    0,"TRK","NO  REC","OK ","OK ",    000877.268,    0002.698,    0098.209,    0018.959,    0103.651
"FRM_SS3_TRK_CMP_EDR_2783.DAT   ",2006-03-12T22:44:15.32 ,"1/0090283451.47775",    3,    2,   15284,"SS3","B3","B2","B3","B2","PISd",0,2,1,1,"B2", 0,15,   1, 1,    0,"TRK","NO  REC","OK ","OK ",    000874.698,    0002.595,    0098.206,    0018.959,    0103.677
"FRM_SS3_TRK_CMP_EDR_2783.DAT   ",2006-03-12T22:44:17.40 ,"1/0090283453.53165",    3,    3,   15284,"SS3","B3","B2","B3","B2","PISd",0,2,1,1,"B2", 0,15,   1, 1,    0,"TRK","NO  REC","OK ","OK ",    000872.131,    0002.493,    0098.204,    0018.959,    0103.703
"FRM_SS3_TRK_CMP_EDR_2783.DAT   ",2006-03-12T22:44:19.48 ,"1/0090283455.58039",    3,    4,   15284,"SS3","B3","B2","B3","B2","PISd",0,2,1,1,"B2", 0,15,   1, 1,    0,"TRK","NO  REC","OK ","OK ",    000869.579,    0002.390,    0098.202,    0018.960,    0103.729
"FRM_SS3_TRK_CMP_EDR_2783.DAT   ",2006-03-12T22:44:21.55 ,"1/0090283457.62914",    3,    5,   15284,"SS3","B3","B2","B3","B2","PISd",0,2,1,1,"B2", 0,15,   1, 1,    0,"TRK","NO  REC","OK ","OK ",    000867.029,    0002.287,    0098.199,    0018.960,    0103.754
"FRM_SS3_TRK_CMP_EDR_2783.DAT   ",2006-03-12T22:44:23.63 ,"1/0090283460.02252",    3,    6,   15284,"SS3","B3","B2","B3","B2","PISd",0,2,1,1,"B2", 0,15,   1, 1,    0,"TRK","NO  REC","OK ","OK ",    000864.484,    0002.185,    0098.197,    0018.961,    0103.780
"FRM_SS3_TRK_CMP_EDR_2783.DAT   ",2006-03-12T22:44:25.69 ,"1/0090283462.06612",    3,    7,   15284,"SS3","B3","B2","B3","B2","PISd",0,2,1,1,"B2", 0,15,   1, 1,    0,"TRK","NO  REC","OK ","OK ",    000861.952,    0002.082,    0098.194,    0018.961,    0103.805
"FRM_SS3_TRK_CMP_EDR_2783.DAT   ",2006-03-12T22:44:27.76 ,"1/0090283464.10972",    3,    8,   15284,"SS3","B3","B2","B3","B2","PISd",0,2,1,1,"B2", 0,15,   1, 1,    0,"TRK","NO  REC","OK ","OK ",    000859.423,    0001.979,    0098.192,    0018.962,    0103.831
"FRM_SS3_TRK_CMP_EDR_2783.DAT   ",2006-03-12T22:44:29.82 ,"1/0090283466.14817",    3,    9,   15284,"SS3","B3","B2","B3","B2","PISd",0,2,1,1,"B2", 0,15,   1, 1,    0,"TRK","NO  REC","OK ","OK ",    000856.908,    0001.877,    0098.190,    0018.962,    0103.856
"FRM_SS3_TRK_CMP_EDR_2783.DAT   ",2006-03-12T22:44:31.88 ,"1/0090283468.18661",    3,   10,   15284,"SS3","B3","B2","B3","B2","PISd",0,2,1,1,"B2", 0,15,   1, 1,    0,"TRK","IEC  OK","OK ","OK ",    000854.397,    0001.775,    0098.188,    0018.962,    0103.882
"FRM_SS3_TRK_CMP_EDR_2783.DAT   ",2006-03-12T22:44:33.93 ,"1/0090283470.21991",    3,   11,   15284,"SS3","B3","B2","B3","B2","PISd",0,2,1,1,"B2", 0,15,   1, 1,    0,"TRK","NO  REC","OK ","OK ",    000851.899,    0001.672,    0098.185,    0018.963,    0103.907
"FRM_SS3_TRK_CMP_EDR_2783.DAT   ",2006-03-12T22:44:35.98 ,"1/0090283472.25321",    3,   12,   15284,"SS3","B3","B2","B3","B2","PISd",0,2,1,1,"B2", 0,15,   1, 1,    0,"TRK","NO  REC","OK ","OK ",    000849.404,    0001.570,    0098.183,    0018.963,    0103.932
"FRM_SS3_TRK_CMP_EDR_2783.DAT   ",2006-03-12T22:44:38.02 ,"1/0090283474.28136",    3,   13,   15284,"SS3","B3","B2","B3","B2","PISd",0,2,1,1,"B2", 0,15,   1, 1,    0,"TRK","NO  REC","OK ","OK ",    000846.923,    0001.468,    0098.181,    0018.964,    0103.958
"FRM_SS3_TRK_CMP_EDR_2783.DAT   ",2006-03-12T22:44:40.06 ,"1/0090283476.30950",    3,   14,   15284,"SS3","B3","B2","B3","B2","PISd",0,2,1,1,"B2", 0,15,   1, 1,    0,"TRK","NO  REC","OK ","OK ",    000844.446,    0001.366,    0098.178,    0018.964,    0103.983
"FRM_SS3_TRK_CMP_EDR_2783.DAT   ",2006-03-12T22:44:42.10 ,"1/0090283478.33250",    3,   15,   15284,"SS3","B3","B2","B3","B2","PISd",0,2,1,1,"B2", 0,15,   1, 1,    0,"TRK","NO  REC","OK ","OK ",    000841.981,    0001.264,    0098.176,    0018.964,    0104.008
"FRM_SS3_TRK_CMP_EDR_2783.DAT   ",2006-03-12T22:44:44.13 ,"1/0090283480.35550",    3,   16,   15284,"SS3","B3","B2","B3","B2","PISd",0,2,1,1,"B2", 0,15,   1, 1,    0,"TRK","NO  REC","OK ","OK ",    000839.521,    0001.162,    0098.174,    0018.965,    0104.033
"FRM_SS3_TRK_CMP_EDR_2783.DAT   ",2006-03-12T22:44:46.16 ,"1/0090283482.37335",    3,   17,   15284,"SS3","B3","B2","B3","B2","PISd",0,2,1,1,"B2", 0,15,   1, 1,    0,"TRK","NO  REC","OK ","OK ",    000837.073,    0001.060,    0098.172,    0018.965,    0104.058
"FRM_SS3_TRK_CMP_EDR_2783.DAT   ",2006-03-12T22:44:48.19 ,"1/0090283484.39120",    3,   18,   15284,"SS3","B3","B2","B3","B2","PISd",0,2,1,1,"B2", 0,15,   1, 1,    0,"TRK","NO  REC","OK ","OK ",    000834.630,    0000.958,    0098.170,    0018.966,    0104.083
"FRM_SS3_TRK_CMP_EDR_2783.DAT   ",2006-03-12T22:44:50.21 ,"1/0090283486.40390",    3,   19,   15284,"SS3","B3","B2","B3","B2","PISd",0,2,1,1,"B2", 0,15,   1, 1,    0,"TRK","NO  REC","OK ","OK ",    000832.199,    0000.857,    0098.167,    0018.966,    0104.107
"FRM_SS3_TRK_CMP_EDR_2783.DAT   ",2006-03-12T22:44:52.23 ,"1/0090283488.41660",    3,   20,   15284,"SS3","B3","B2","B3","B2","PISd",0,2,1,1,"B2", 0,15,   1, 1,    0,"TRK","NO  REC","OK ","OK ",    000829.772,    0000.755,    0098.165,    0018.966,    0104.132
"FRM_SS3_TRK_CMP_EDR_2783.DAT   ",2006-03-12T22:44:54.25 ,"1/0090283490.42930",    3,   21,   15284,"SS3","B3","B2","B3","B2","PISd",0,2,1,1,"B2", 0,15,   1, 1,    0,"TRK","NO  REC","OK ","OK ",    000827.349,    0000.653,    0098.163,    0018.967,    0104.157
"FRM_SS3_TRK_CMP_EDR_2783.DAT   ",2006-03-12T22:44:56.26 ,"1/0090283492.43685",    3,   22,   15284,"SS3","B3","B2","B3","B2","PISd",0,2,1,1,"B2", 0,15,   1, 1,    0,"TRK","NO  REC","OK ","OK ",    000824.939,    0000.552,    0098.161,    0018.967,    0104.182
"FRM_SS3_TRK_CMP_EDR_2783.DAT   ",2006-03-12T22:44:58.27 ,"1/0090283494.44440",    3,   23,   15284,"SS3","B3","B2","B3","B2","PISd",0,2,1,1,"B2", 0,15,   1, 1,    0,"TRK","NO  REC","OK ","OK ",    000822.533,    0000.450,    0098.159,    0018.968,    0104.206
"FRM_SS3_TRK_CMP_EDR_2783.DAT   ",2006-03-12T22:45:00.27 ,"1/0090283496.44680",    3,   24,   15284,"SS3","B3","B2","B3","B2","PISd",0,2,1,1,"B2", 0,15,   1, 1,    0,"TRK","NO  REC","OK ","OK ",    000820.140,    0000.349,    0098.156,    0018.968,    0104.231
"FRM_SS3_TRK_CMP_EDR_2783.DAT   ",2006-03-12T22:45:02.28 ,"1/0090283498.44920",    3,   25,   15284,"SS3","B3","B2","B3","B2","PISd",0,2,1,1,"B2", 0,15,   1, 1,    0,"TRK","NO  REC","OK ","OK ",    000817.750,    0000.247,    0098.154,    0018.968,    0104.255
"FRM_SS3_TRK_CMP_EDR_2783.DAT   ",2006-03-12T22:45:04.27 ,"1/0090283500.44646",    3,   26,   15284,"SS3","B3","B2","B3","B2","PISd",0,2,1,1,"B2", 0,15,   1, 1,    0,"TRK","NO  REC","OK ","OK ",    000815.374,    0000.146,    0098.152,    0018.969,    0104.280
"FRM_SS3_TRK_CMP_EDR_2783.DAT   ",2006-03-12T22:45:06.27 ,"1/0090283502.44371",    3,   27,   15284,"SS3","B3","B2","B3","B2","PISd",0,2,1,1,"B2", 0,15,   1, 1,    0,"TRK","NO  REC","OK ","OK ",    000813.001,    0000.045,    0098.150,    0018.969,    0104.304
"FRM_SS3_TRK_CMP_EDR_2783.DAT   ",2006-03-12T22:45:08.26 ,"1/0090283504.43581",    3,   28,   15284,"SS3","B3","B2","B3","B2","PISd",0,2,1,1,"B2", 0,15,   1, 1,    0,"TRK","NO  REC","OK ","OK ",    000810.641,    -000.056,    0098.148,    0018.969,    0104.328
"FRM_SS3_TRK_CMP_EDR_2783.DAT   ",2006-03-12T22:45:10.24 ,"1/0090283506.42791",    3,   29,   15284,"SS3","B3","B2","B3","B2","PISd",0,2,1,1,"B2", 0,15,   1, 1,    0,"TRK","NO  REC","OK ","OK ",    000808.285,    -000.157,    0098.146,    0018.970,    0104.352
"FRM_SS3_TRK_CMP_EDR_2783.DAT   ",2006-03-12T22:45:12.23 ,"1/0090283508.42001",    3,   30,   15284,"SS3","B3","B2","B3","B2","PISd",0,2,1,1,"B2", 0,15,   1, 1,    0,"TRK","NO  REC","OK ","OK ",    000805.933,    -000.259,    0098.144,    0018.970,    0104.377
"FRM_SS3_TRK_CMP_EDR_2783.DAT   ",2006-03-12T22:45:14.21 ,"1/0090283510.40696",    3,   31,   15284,"SS3","B3","B2","B3","B2","PISd",0,2,1,1,"B2", 0,15,   1, 1,    0,"TRK","NO  REC","OK ","OK ",    000803.593,    -000.360,    0098.142,    0018.971,    0104.401
"FRM_SS3_TRK_CMP_EDR_2783.DAT   ",2006-03-12T22:45:16.19 ,"1/0090283512.39392",    3,   32,   15284,"SS3","B3","B2","B3","B2","PISd",0,2,1,1,"B2", 0,15,   1, 1,    0,"TRK","NO  REC","OK ","OK ",    000801.257,    -000.461,    0098.140,    0018.971,    0104.425
"FRM_SS3_TRK_CMP_EDR_2783.DAT   ",2006-03-12T22:45:18.16 ,"1/0090283514.37572",    3,   33,   15284,"SS3","B3","B2","B3","B2","PISd",0,2,1,1,"B2", 0,15,   1, 1,    0,"TRK","NO  REC","OK ","OK ",    000798.935,    -000.561,    0098.138,    0018.971,    0104.449
"FRM_SS3_TRK_CMP_EDR_2783.DAT   ",2006-03-12T22:45:20.14 ,"1/0090283516.35752",    3,   34,   15284,"SS3","B3","B2","B3","B2","PISd",0,2,1,1,"B2", 0,15,   1, 1,    0,"TRK","NO  REC","OK ","OK ",    000796.615,    -000.662,    0098.136,    0018.972,    0104.473
"FRM_SS3_TRK_CMP_EDR_2783.DAT   ",2006-03-12T22:45:22.10 ,"1/0090283518.33418",    3,   35,   15284,"SS3","B3","B2","B3","B2","PISd",0,2,1,1,"B2", 0,15,   1, 1,    0,"TRK","NO  REC","OK ","OK ",    000794.309,    -000.763,    0098.133,    0018.972,    0104.497
"FRM_SS3_TRK_CMP_EDR_2783.DAT   ",2006-03-12T22:45:24.07 ,"1/0090283520.31083",    3,   36,   15284,"SS3","B3","B2","B3","B2","PISd",0,2,1,1,"B2", 0,15,   1, 1,    0,"TRK","NO  REC","OK ","OK ",    000792.007,    -000.864,    0098.131,    0018.973,    0104.520
"FRM_SS3_TRK_CMP_EDR_2783.DAT   ",2006-03-12T22:45:26.03 ,"1/0090283522.28748",    3,   37,   15284,"SS3","B3","B2","B3","B2","PISd",0,2,1,1,"B2", 0,15,   1, 1,    0,"TRK","NO  REC","OK ","OK ",    000789.708,    -000.964,    0098.129,    0018.973,    0104.544
"FRM_SS3_TRK_CMP_EDR_2783.DAT   ",2006-03-12T22:45:27.99 ,"1/0090283524.25899",    3,   38,   15284,"SS3","B3","B2","B3","B2","PISd",0,2,1,1,"B2", 0,15,   1, 1,    0,"TRK","NO  REC","OK ","OK ",    000787.422,    -001.065,    0098.127,    0018.974,    0104.568
"FRM_SS3_TRK_CMP_EDR_2783.DAT   ",2006-03-12T22:45:29.94 ,"1/0090283526.23049",    3,   39,   15284,"SS3","B3","B2","B3","B2","PISd",0,2,1,1,"B2", 0,15,   1, 1,    0,"TRK","NO  REC","OK ","OK ",    000785.140,    -001.166,    0098.125,    0018.974,    0104.592
"FRM_SS3_TRK_CMP_EDR_2783.DAT   ",2006-03-12T22:45:31.89 ,"1/0090283528.19684",    3,   40,   15284,"SS3","B3","B2","B3","B2","PISd",0,2,1,1,"B2", 0,15,   1, 1,    0,"TRK","NO  REC","OK ","OK ",    000782.870,    -001.266,    0098.123,    0018.974,    0104.615
"FRM_SS3_TRK_CMP_EDR_2783.DAT   ",2006-03-12T22:45:33.84 ,"1/0090283530.16320",    3,   41,   15284,"SS3","B3","B2","B3","B2","PISd",0,2,1,1,"B2", 0,15,   1, 1,    0,"TRK","NO  REC","OK ","OK ",    000780.604,    -001.366,    0098.121,    0018.975,    0104.639
"FRM_SS3_TRK_CMP_EDR_2783.DAT   ",2006-03-12T22:45:35.78 ,"1/0090283532.12440",    3,   42,   15284,"SS3","B3","B2","B3","B2","PISd",0,2,1,1,"B2", 0,15,   1, 1,    0,"TRK","NO  REC","OK ","OK ",    000778.351,    -001.467,    0098.120,    0018.975,    0104.662
"FRM_SS3_TRK_CMP_EDR_2783.DAT   ",2006-03-12T22:45:37.72 ,"1/0090283534.08561",    3,   43,   15284,"SS3","B3","B2","B3","B2","PISd",0,2,1,1,"B2", 0,15,   1, 1,    0,"TRK","NO  REC","OK ","OK ",    000776.102,    -001.567,    0098.118,    0018.976,    0104.686
"FRM_SS3_TRK_CMP_EDR_2783.DAT   ",2006-03-12T22:45:39.66 ,"1/0090283536.04681",    3,   44,   15284,"SS3","B3","B2","B3","B2","PISd",0,2,1,1,"B2", 0,15,   1, 1,    0,"TRK","NO  REC","OK ","OK ",    000773.856,    -001.667,    0098.116,    0018.976,    0104.709
"FRM_SS3_TRK_CMP_EDR_2783.DAT   ",2006-03-12T22:45:41.60 ,"1/0090283538.00287",    3,   45,   15284,"SS3","B3","B2","B3","B2","PISd",0,2,1,1,"B2", 0,15,   1, 1,    0,"TRK","NO  REC","OK ","OK ",    000771.623,    -001.767,    0098.114,    0018.976,    0104.732
"FRM_SS3_TRK_CMP_EDR_2783.DAT   ",2006-03-12T22:45:43.53 ,"1/0090283539.61428",    3,   46,   15284,"SS3","B3","B2","B3","B2","PISd",0,2,1,1,"B2", 0,15,   1, 1,    0,"TRK","NO  REC","OK ","OK ",    000769.394,    -001.867,    0098.112,    0018.977,    0104.756
"FRM_SS3_TRK_CMP_EDR_2783.DAT   ",2006-03-12T22:45:45.45 ,"1/0090283541.56519",    3,   47,   15284,"SS3","B3","B2","B3","B2","PISd",0,2,1,1,"B2", 0,15,   1, 1,    0,"TRK","NO  REC","OK ","OK ",    000767.178,    -001.967,    0098.110,    0018.977,    0104.779
"FRM_SS3_TRK_CMP_EDR_2783.DAT   ",2006-03-12T22:45:47.38 ,"1/0090283543.51610",    3,   48,   15284,"SS3","B3","B2","B3","B2","PISd",0,2,1,1,"B2", 0,15,   1, 1,    0,"TRK","NO  REC","OK ","OK ",    000764.965,    -002.067,    0098.108,    0018.977,    0104.802
"FRM_SS3_TRK_CMP_EDR_2783.DAT   ",2006-03-12T22:45:49.30 ,"1/0090283545.46185",    3,   49,   15284,"SS3","B3","B2","B3","B2","PISd",0,2,1,1,"B2", 0,15,   1, 1,    0,"TRK","NO  REC","OK ","OK ",    000762.765,    -002.167,    0098.106,    0018.978,    0104.825
"FRM_SS3_TRK_CMP_EDR_2783.DAT   ",2006-03-12T22:45:51.21 ,"1/0090283547.40761",    3,   50,   15284,"SS3","B3","B2","B3","B2","PISd",0,2,1,1,"B2", 0,15,   1, 1,    0,"TRK","NO  REC","OK ","OK ",    000760.568,    -002.267,    0098.104,    0018.978,    0104.848
"FRM_SS3_TRK_CMP_EDR_2783.DAT   ",2006-03-12T22:45:53.13 ,"1/0090283549.35337",    3,   51,   15284,"SS3","B3","B2","B3","B2","PISd",0,2,1,1,"B2", 0,15,   1, 1,    0,"TRK","NO  REC","OK ","OK ",    000758.375,    -002.367,    0098.102,    0018.979,    0104.871
"FRM_SS3_TRK_CMP_EDR_2783.DAT   ",2006-03-12T22:45:55.04 ,"1/0090283551.29397",    3,   52,   15284,"SS3","B3","B2","B3","B2","PISd",0,2,1,1,"B2", 0,15,   1, 1,    0,"TRK","NO  REC","OK ","OK ",    000756.195,    -002.466,    0098.100,    0018.979,    0104.894
"FRM_SS3_TRK_CMP_EDR_2783.DAT   ",2006-03-12T22:45:56.95 ,"1/0090283553.23458",    3,   53,   15284,"SS3","B3","B2","B3","B2","PISd",0,2,1,1,"B2", 0,15,   1, 1,    0,"TRK","NO  REC","OK ","OK ",    000754.019,    -002.566,    0098.099,    0018.979,    0104.917
"FRM_SS3_TRK_CMP_EDR_2783.DAT   ",2006-03-12T22:45:58.85 ,"1/0090283555.17004",    3,   54,   15284,"SS3","B3","B2","B3","B2","PISd",0,2,1,1,"B2", 0,15,   1, 1,    0,"TRK","NO  REC","OK ","OK ",    000751.855,    -002.665,    0098.097,    0018.980,    0104.939
"FRM_SS3_TRK_CMP_EDR_2783.DAT   ",2006-03-12T22:46:00.75 ,"1/0090283557.10549",    3,   55,   15284,"SS3","B3","B2","B3","B2","PISd",0,2,1,1,"B2", 0,15,   1, 1,    0,"TRK","NO  REC","OK ","OK ",    000749.694,    -002.765,    0098.095,    0018.980,    0104.962
"FRM_SS3_TRK_CMP_EDR_2783.DAT   ",2006-03-12T22:46:02.65 ,"1/0090283559.04095",    3,   56,   15284,"SS3","B3","B2","B3","B2","PISd",0,2,1,1,"B2", 0,15,   1, 1,    0,"TRK","NO  REC","OK ","OK ",    000747.538,    -002.865,    0098.093,    0018.981,    0104.985
"FRM_SS3_TRK_CMP_EDR_2783.DAT   ",2006-03-12T22:46:04.55 ,"1/0090283560.62662",    3,   57,   15284,"SS3","B3","B2","B3","B2","PISd",0,2,1,1,"B2", 0,15,   1, 1,    0,"TRK","NO  REC","OK ","OK ",    000745.394,    -002.964,    0098.091,    0018.981,    0105.007